Tracking 29892 objects as of 21-Nov-2024
HD Live streaming from Space Station
objects crossing your sky now

STARLINK-4586

Track STARLINK-4586 now!
10-day predictions
STARLINK-4586 is classified as:


NORAD ID: 53636
Int'l Code: 2022-104BA
Perigee: 545.5 km
Apogee: 547.9 km
Inclination: 53.2 °
Period: 95.4 minutes
Semi major axis: 6917 km
RCS: Unknown
Launch date: August 28, 2022
Source: United States (US)
Launch site: AIR FORCE EASTERN TEST RANGE (AFETR)
Your satellite tracking list
Your tracking list is empty




NASA's NSSDC Master Catalog

Two Line Element Set (TLE):
1 53636U 22104BA  24325.71498831  .00023558  00000-0  14909-2 0  9997
2 53636  53.2164 191.6924 0001720 119.2188 240.8976 15.08899243124673
Source of the keplerian elements: AFSPC